Tracking 17887 objects as of 10-December-2016
HD Live streaming from Space Station
objects crossing your sky now

COSMOS 2251 DEB

Track COSMOS 2251 DEB now!
10-day predictions


NORAD ID: 34781
Int'l Code: 1993-036AAJ
Perigee: 413.1 km
Apogee: 434.9 km
Inclination: 74.0 °
Period: 92.9 minutes
Semi major axis: 6794 km
RCS: 0.0067 m2 (small)
Launch date: June 16, 1993
Source: Commonwealth of Independent States (former USSR) (CIS)
Launch site: PLESETSK MISSILE AND SPACE COMPLEX (PKMTR)

Note: This is SATELLITE DEBRIS
Your satellite tracking list
Your tracking list is empty





NASA's NSSDC Master Catalog

Two Line Element Set (TLE):
1 34781U 93036AAJ 16344.84183689  .00227734  00000-0  39318-2 0  9990
2 34781  74.0215 268.4304 0016034 193.4019 166.6771 15.49967359413170
Source of the keplerian elements: AFSPC